QPF
0.05 0.05 0.05 0.05 0.03 0.02 0.01 0.01 0.01 0.02 0.03 0.03 0.03 0.03 0.04 0.06 0.06 0.06 0.04 0.05 0.07 0.08 0.09 0.08 0.06 0.06 0.05 0.05 0.06 0.07 0.07 0.07 0.06 0.04 0.04 0.04 0.04 0.04 0.04 0.04 0.05 0.06 0.07
0.04 0.04 0.04 0.03 0.03 0.02 0.01 0.02 0.02 0.02 0.02 0.02 0.02 0.02 0.02 0.03 0.06 0.12 0.12 0.10 0.11 0.10 0.10 0.09 0.07 0.06 0.06 0.06 0.06 0.07 0.06 0.07 0.07 0.04 0.03 0.04 0.04 0.04 0.04 0.03 0.04 0.05 0.06
0.02 0.03 0.02 0.02 0.02 0.01 0.01 0.02 0.02 0.02 0.02 0.01 0.01 0.01 0.01 0.01 0.03 0.07 0.13 0.12 0.14 0.15 0.12 0.10 0.09 0.08 0.06 0.06 0.07 0.08 0.07 0.05 0.05 0.05 0.05 0.05 0.05 0.04 0.03 0.04 0.04 0.03 0.02
0.02 0.03 0.02 0.01 0.01 0.02 0.01 0.01 0.00 0.01 0.02 0.01 0.01 0.01 0.01 0.01 0.03 0.06 0.09 0.12 0.11 0.11 0.13 0.13 0.11 0.10 0.08 0.07 0.07 0.08 0.08 0.06 0.04 0.04 0.04 0.05 0.06 0.06 0.05 0.04 0.04 0.04 0.02
0.03 0.04 0.03 0.01 0.01 0.03 0.02 0.01 0.00 0.01 0.01 0.02 0.01 0.01 0.01 0.01 0.03 0.05 0.08 0.12 0.13 0.09 0.07 0.08 0.08 0.06 0.05 0.05 0.06 0.07 0.07 0.07 0.05 0.04 0.05 0.06 0.07 0.06 0.05 0.03 0.03 0.03 0.02
0.04 0.04 0.03 0.02 0.02 0.05 0.04 0.02 0.02 0.02 0.02 0.02 0.01 0.01 0.01 0.01 0.03 0.05 0.06 0.09 0.10 0.07 0.07 0.07 0.07 0.06 0.05 0.05 0.06 0.08 0.07 0.05 0.03 0.03 0.04 0.06 0.08 0.08 0.05 0.04 0.02 0.02 0.02
0.04 0.05 0.05 0.03 0.02 0.03 0.04 0.05 0.06 0.05 0.03 0.03 0.03 0.03 0.02 0.02 0.02 0.04 0.05 0.07 0.05 0.05 0.07 0.08 0.06 0.06 0.06 0.08 0.10 0.09 0.08 0.06 0.04 0.03 0.03 0.06 0.07 0.08 0.07 0.06 0.04 0.03 0.03
0.03 0.05 0.06 0.03 0.03 0.04 0.07 0.12 0.11 0.06 0.04 0.03 0.03 0.03 0.03 0.02 0.02 0.03 0.04 0.04 0.02 0.03 0.04 0.05 0.06 0.06 0.08 0.10 0.12 0.08 0.08 0.08 0.06 0.05 0.04 0.05 0.07 0.10 0.08 0.07 0.07 0.05 0.02
0.02 0.02 0.02 0.02 0.02 0.03 0.04 0.06 0.06 0.05 0.02 0.02 0.02 0.02 0.02 0.02 0.02 0.03 0.03 0.02 0.02 0.02 0.03 0.04 0.05 0.07 0.07 0.08 0.09 0.08 0.08 0.07 0.06 0.06 0.06 0.05 0.07 0.09 0.09 0.09 0.09 0.08 0.05
0.01 0.01 0.01 0.01 0.01 0.01 0.01 0.01 0.01 0.01 0.01 0.01 0.01 0.01 0.01 0.02 0.02 0.03 0.03 0.03 0.02 0.03 0.03 0.04 0.05 0.06 0.05 0.06 0.06 0.06 0.07 0.06 0.05 0.05 0.04 0.04 0.05 0.04 0.06 0.07 0.07 0.07 0.06
0.00 0.01 0.01 0.01 0.02 0.02 0.01 0.01 0.01 0.01 0.01 0.01 0.01 0.01 0.01 0.02 0.02 0.02 0.02 0.01 0.02 0.03 0.03 0.03 0.05 0.06 0.05 0.05 0.06 0.05 0.06 0.05 0.04 0.04 0.04 0.04 0.03 0.03 0.03 0.04 0.04 0.05 0.05
0.00 0.01 0.02 0.02 0.02 0.02 0.02 0.02 0.02 0.01 0.01 0.01 0.01 0.01 0.01 0.02 0.02 0.01 0.02 0.02 0.02 0.03 0.04 0.04 0.04 0.05 0.05 0.06 0.07 0.07 0.07 0.06 0.04 0.03 0.03 0.03 0.03 0.02 0.03 0.03 0.02 0.03 0.04
0.01 0.02 0.02 0.02 0.02 0.02 0.02 0.02 0.02 0.02 0.02 0.02 0.01 0.01 0.02 0.04 0.06 0.06 0.05 0.03 0.03 0.04 0.04 0.03 0.04 0.05 0.06 0.07 0.07 0.07 0.07 0.05 0.04 0.03 0.02 0.03 0.03 0.02 0.03 0.03 0.03 0.03 0.04
0.01 0.01 0.01 0.01 0.01 0.02 0.02 0.02 0.02 0.03 0.03 0.03 0.02 0.01 0.04 0.05 0.05 0.05 0.05 0.04 0.04 0.03 0.04 0.05 0.07 0.08 0.08 0.08 0.07 0.05 0.07 0.06 0.05 0.04 0.04 0.03 0.03 0.03 0.02 0.03 0.03 0.04 0.05
0.01 0.01 0.02 0.02 0.02 0.03 0.03 0.03 0.03 0.04 0.04 0.04 0.03 0.03 0.05 0.05 0.05 0.06 0.07 0.05 0.05 0.06 0.07 0.08 0.09 0.10 0.08 0.06 0.06 0.07 0.08 0.07 0.06 0.05 0.05 0.03 0.04 0.04 0.03 0.03 0.03 0.04 0.05
0.02 0.02 0.02 0.02 0.03 0.04 0.04 0.04 0.05 0.06 0.06 0.06 0.06 0.07 0.09 0.09 0.10 0.12 0.09 0.06 0.04 0.04 0.03 0.03 0.05 0.07 0.07 0.07 0.07 0.08 0.07 0.07 0.07 0.06 0.05 0.04 0.04 0.04 0.04 0.04 0.04 0.05 0.04
0.01 0.02 0.01 0.02 0.02 0.03 0.04 0.05 0.06 0.06 0.07 0.07 0.07 0.09 0.09 0.09 0.09 0.08 0.06 0.05 0.03 0.03 0.02 0.02 0.03 0.05 0.08 0.09 0.09 0.09 0.08 0.07 0.06 0.06 0.07 0.06 0.04 0.05 0.05 0.05 0.04 0.04 0.04
0.02 0.02 0.02 0.02 0.03 0.05 0.05 0.07 0.08 0.07 0.06 0.06 0.06 0.06 0.08 0.09 0.09 0.07 0.05 0.04 0.03 0.02 0.01 0.01 0.02 0.02 0.05 0.08 0.12 0.15 0.12 0.09 0.08 0.08 0.07 0.06 0.06 0.06 0.06 0.04 0.03 0.03 0.02
0.02 0.02 0.01 0.01 0.02 0.03 0.05 0.07 0.09 0.12 0.13 0.13 0.12 0.11 0.10 0.08 0.07 0.08 0.06 0.05 0.03 0.02 0.01 0.01 0.02 0.01 0.02 0.04 0.08 0.12 0.10 0.07 0.06 0.06 0.07 0.07 0.06 0.06 0.05 0.04 0.03 0.03 0.02
0.02 0.01 0.01 0.01 0.01 0.02 0.02 0.02 0.04 0.08 0.09 0.14 0.18 0.18 0.15 0.13 0.10 0.09 0.09 0.06 0.04 0.03 0.03 0.02 0.02 0.03 0.02 0.04 0.05 0.06 0.06 0.05 0.06 0.07 0.08 0.09 0.07 0.06 0.05 0.04 0.03 0.02 0.02
0.02 0.02 0.01 0.01 0.01 0.01 0.01 0.02 0.01 0.02 0.02 0.04 0.06 0.08 0.11 0.11 0.11 0.08 0.06 0.05 0.03 0.03 0.02 0.02 0.02 0.03 0.03 0.03 0.03 0.04 0.04 0.04 0.04 0.05 0.06 0.06 0.06 0.05 0.05 0.04 0.03 0.02 0.02
0.02 0.02 0.01 0.01 0.01 0.01 0.01 0.01 0.01 0.01 0.02 0.03 0.03 0.04 0.05 0.07 0.08 0.07 0.06 0.04 0.03 0.02 0.02 0.03 0.02 0.03 0.02 0.02 0.03 0.04 0.04 0.04 0.03 0.03 0.04 0.04 0.04 0.04 0.05 0.04 0.03 0.03 0.03
0.02 0.01 0.01 0.01 0.01 0.01 0.01 0.01 0.01 0.01 0.02 0.03 0.05 0.04 0.04 0.05 0.05 0.05 0.05 0.05 0.04 0.03 0.03 0.03 0.03 0.03 0.03 0.03 0.03 0.02 0.03 0.03 0.03 0.03 0.03 0.02 0.03 0.04 0.03 0.04 0.04 0.04 0.03
0.02 0.01 0.01 0.01 0.01 0.01 0.01 0.01 0.01 0.02 0.02 0.04 0.05 0.05 0.04 0.04 0.05 0.05 0.05 0.05 0.04 0.03 0.04 0.04 0.03 0.03 0.03 0.02 0.01 0.01 0.01 0.02 0.02 0.01 0.02 0.02 0.03 0.02 0.02 0.03 0.03 0.03 0.03
0.03 0.02 0.02 0.02 0.02 0.02 0.02 0.03 0.03 0.03 0.03 0.04 0.05 0.06 0.06 0.07 0.07 0.07 0.07 0.07 0.07 0.06 0.05 0.04 0.03 0.02 0.02 0.01 0.01 0.01 0.01 0.01 0.01 0.01 0.01 0.01 0.01 0.01 0.01 0.01 0.01 0.02 0.02
0.03 0.02 0.03 0.03 0.03 0.04 0.04 0.05 0.05 0.04 0.03 0.03 0.04 0.05 0.07 0.08 0.09 0.09 0.08 0.08 0.07 0.08 0.06 0.04 0.03 0.02 0.01 0.01 0.01 0.01 0.01 0.01 0.02 0.02 0.01 0.01 0.01 0.01 0.01 0.01 0.01 0.01 0.02
MSLP
1014.27 1014.41 1014.48 1014.50 1014.51 1014.52 1014.59 1014.74 1014.98 1015.31 1015.71 1016.13 1016.55 1016.93 1017.25 1017.49 1017.65 1017.75 1017.82 1017.87 1017.94 1018.03 1018.15 1018.28 1018.40 1018.52 1018.60 1018.65 1018.65 1018.60 1018.51 1018.38 1018.22 1018.03 1017.80 1017.53 1017.21 1016.86 1016.47 1016.07 1015.68 1015.32 1015.03
1014.30 1014.54 1014.69 1014.74 1014.74 1014.74 1014.78 1014.90 1015.14 1015.49 1015.92 1016.39 1016.85 1017.24 1017.53 1017.71 1017.78 1017.77 1017.72 1017.68 1017.68 1017.74 1017.84 1018.00 1018.16 1018.30 1018.40 1018.44 1018.41 1018.32 1018.19 1018.04 1017.88 1017.71 1017.54 1017.35 1017.14 1016.88 1016.57 1016.22 1015.86 1015.49 1015.16
1014.10 1014.46 1014.70 1014.83 1014.86 1014.86 1014.89 1015.01 1015.24 1015.60 1016.05 1016.55 1017.03 1017.43 1017.70 1017.83 1017.82 1017.73 1017.59 1017.47 1017.40 1017.41 1017.51 1017.66 1017.83 1017.98 1018.08 1018.10 1018.04 1017.92 1017.76 1017.59 1017.45 1017.33 1017.23 1017.15 1017.05 1016.92 1016.72 1016.47 1016.16 1015.82 1015.48
1013.65 1014.13 1014.50 1014.72 1014.83 1014.87 1014.91 1015.02 1015.25 1015.60 1016.06 1016.56 1017.05 1017.45 1017.71 1017.82 1017.77 1017.62 1017.42 1017.23 1017.11 1017.08 1017.15 1017.29 1017.45 1017.60 1017.68 1017.68 1017.59 1017.44 1017.26 1017.09 1016.96 1016.89 1016.88 1016.91 1016.95 1016.95 1016.89 1016.74 1016.51 1016.22 1015.89
1012.96 1013.58 1014.08 1014.43 1014.63 1014.73 1014.80 1014.91 1015.13 1015.46 1015.90 1016.40 1016.88 1017.28 1017.55 1017.65 1017.58 1017.41 1017.18 1016.96 1016.80 1016.74 1016.78 1016.90 1017.04 1017.16 1017.22 1017.20 1017.09 1016.92 1016.73 1016.56 1016.46 1016.45 1016.52 1016.65 1016.81 1016.94 1017.01 1016.98 1016.84 1016.62 1016.32
1012.10 1012.84 1013.48 1013.96 1014.27 1014.44 1014.55 1014.66 1014.85 1015.15 1015.56 1016.03 1016.50 1016.90 1017.18 1017.29 1017.24 1017.08 1016.85 1016.62 1016.45 1016.37 1016.39 1016.48 1016.60 1016.70 1016.74 1016.70 1016.58 1016.40 1016.22 1016.06 1015.99 1016.02 1016.16 1016.37 1016.63 1016.87 1017.04 1017.12 1017.08 1016.92 1016.68
1011.17 1012.01 1012.77 1013.37 1013.78 1014.02 1014.15 1014.26 1014.42 1014.67 1015.03 1015.46 1015.91 1016.31 1016.60 1016.75 1016.74 1016.61 1016.42 1016.21 1016.04 1015.96 1015.95 1016.03 1016.13 1016.21 1016.25 1016.20 1016.09 1015.92 1015.75 1015.62 1015.58 1015.64 1015.82 1016.08 1016.40 1016.71 1016.97 1017.13 1017.17 1017.09 1016.91
1010.27 1011.18 1012.03 1012.72 1013.20 1013.49 1013.64 1013.74 1013.85 1014.06 1014.35 1014.74 1015.16 1015.55 1015.86 1016.05 1016.10 1016.02 1015.88 1015.71 1015.56 1015.48 1015.47 1015.53 1015.62 1015.71 1015.74 1015.72 1015.63 1015.50 1015.36 1015.26 1015.24 1015.32 1015.51 1015.79 1016.13 1016.48 1016.78 1017.00 1017.11 1017.11 1016.99
1009.49 1010.42 1011.32 1012.06 1012.58 1012.90 1013.05 1013.12 1013.20 1013.34 1013.58 1013.91 1014.29 1014.68 1015.01 1015.24 1015.34 1015.33 1015.25 1015.12 1015.01 1014.95 1014.94 1015.00 1015.09 1015.19 1015.25 1015.26 1015.22 1015.13 1015.04 1014.97 1014.97 1015.06 1015.25 1015.52 1015.85 1016.20 1016.52 1016.77 1016.93 1016.99 1016.95
1008.86 1009.79 1010.68 1011.43 1011.96 1012.27 1012.41 1012.46 1012.49 1012.57 1012.75 1013.04 1013.39 1013.77 1014.11 1014.38 1014.53 1014.59 1014.56 1014.49 1014.41 1014.37 1014.38 1014.44 1014.54 1014.66 1014.76 1014.82 1014.84 1014.82 1014.78 1014.76 1014.78 1014.87 1015.04 1015.28 1015.58 1015.90 1016.20 1016.47 1016.67 1016.79 1016.82
1008.40 1009.27 1010.12 1010.82 1011.32 1011.62 1011.73 1011.75 1011.74 1011.79 1011.93 1012.17 1012.50 1012.87 1013.22 1013.52 1013.72 1013.83 1013.85 1013.83 1013.79 1013.77 1013.79 1013.87 1013.99 1014.14 1014.28 1014.40 1014.49 1014.54 1014.57 1014.60 1014.65 1014.74 1014.89 1015.08 1015.33 1015.60 1015.88 1016.14 1016.36 1016.53 1016.64
1008.03 1008.82 1009.58 1010.21 1010.66 1010.91 1011.00 1010.99 1010.97 1011.00 1011.12 1011.35 1011.66 1012.03 1012.39 1012.71 1012.95 1013.10 1013.17 1013.18 1013.17 1013.17 1013.22 1013.31 1013.46 1013.63 1013.83 1014.01 1014.17 1014.29 1014.39 1014.47 1014.55 1014.64 1014.76 1014.92 1015.11 1015.34 1015.58 1015.82 1016.05 1016.26 1016.43
1007.69 1008.37 1009.02 1009.55 1009.93 1010.13 1010.20 1010.19 1010.18 1010.21 1010.34 1010.57 1010.89 1011.26 1011.64 1011.97 1012.24 1012.42 1012.52 1012.56 1012.58 1012.61 1012.67 1012.78 1012.95 1013.16 1013.39 1013.63 1013.86 1014.05 1014.21 1014.34 1014.44 1014.54 1014.65 1014.77 1014.92 1015.09 1015.29 1015.52 1015.75 1015.98 1016.21
1007.30 1007.85 1008.38 1008.81 1009.11 1009.27 1009.33 1009.34 1009.35 1009.42 1009.58 1009.84 1010.17 1010.56 1010.94 1011.30 1011.58 1011.79 1011.92 1011.99 1012.04 1012.09 1012.17 1012.30 1012.49 1012.72 1012.99 1013.27 1013.54 1013.79 1014.00 1014.17 1014.30 1014.41 1014.51 1014.61 1014.72 1014.86 1015.03 1015.22 1015.45 1015.70 1015.95
1006.84 1007.26 1007.66 1007.99 1008.21 1008.34 1008.40 1008.44 1008.51 1008.63 1008.84 1009.14 1009.51 1009.91 1010.31 1010.68 1010.98 1011.21 1011.36 1011.47 1011.54 1011.61 1011.72 1011.86 1012.06 1012.31 1012.60 1012.90 1013.21 1013.49 1013.74 1013.94 1014.10 1014.23 1014.32 1014.41 1014.50 1014.61 1014.75 1014.92 1015.14 1015.38 1015.65
1006.31 1006.62 1006.90 1007.13 1007.29 1007.40 1007.48 1007.57 1007.69 1007.88 1008.15 1008.49 1008.89 1009.31 1009.73 1010.10 1010.42 1010.67 1010.85 1010.98 1011.08 1011.18 1011.30 1011.47 1011.68 1011.93 1012.22 1012.53 1012.84 1013.14 1013.40 1013.63 1013.81 1013.95 1014.06 1014.15 1014.23 1014.33 1014.45 1014.60 1014.79 1015.03 1015.29
1005.79 1006.00 1006.18 1006.32 1006.44 1006.54 1006.64 1006.77 1006.96 1007.21 1007.53 1007.91 1008.33 1008.77 1009.19 1009.57 1009.90 1010.16 1010.37 1010.53 1010.66 1010.79 1010.93 1011.10 1011.32 1011.56 1011.84 1012.14 1012.44 1012.73 1013.00 1013.23 1013.42 1013.58 1013.70 1013.80 1013.89 1013.99 1014.10 1014.24 1014.41 1014.62 1014.87
1005.36 1005.48 1005.58 1005.67 1005.76 1005.85 1005.98 1006.15 1006.39 1006.68 1007.04 1007.45 1007.88 1008.31 1008.73 1009.10 1009.43 1009.70 1009.92 1010.11 1010.27 1010.42 1010.58 1010.76 1010.97 1011.20 1011.45 1011.72 1011.99 1012.26 1012.51 1012.74 1012.94 1013.11 1013.25 1013.37 1013.47 1013.58 1013.69 1013.83 1013.98 1014.17 1014.39
1005.10 1005.16 1005.21 1005.26 1005.33 1005.42 1005.57 1005.77 1006.03 1006.35 1006.72 1007.12 1007.54 1007.95 1008.34 1008.70 1009.02 1009.29 1009.53 1009.73 1009.91 1010.08 1010.25 1010.43 1010.62 1010.83 1011.04 1011.27 1011.50 1011.73 1011.95 1012.17 1012.36 1012.54 1012.70 1012.84 1012.97 1013.10 1013.22 1013.36 1013.51 1013.68 1013.87
1005.05 1005.08 1005.10 1005.13 1005.19 1005.29 1005.45 1005.66 1005.93 1006.24 1006.59 1006.96 1007.34 1007.71 1008.06 1008.38 1008.68 1008.94 1009.17 1009.39 1009.58 1009.76 1009.94 1010.10 1010.27 1010.44 1010.61 1010.79 1010.97 1011.15 1011.34 1011.53 1011.72 1011.90 1012.08 1012.24 1012.40 1012.54 1012.69 1012.83 1012.99 1013.15 1013.32
1005.21 1005.23 1005.25 1005.28 1005.34 1005.45 1005.60 1005.80 1006.05 1006.33 1006.64 1006.95 1007.27 1007.58 1007.87 1008.15 1008.40 1008.64 1008.87 1009.08 1009.27 1009.45 1009.61 1009.76 1009.90 1010.03 1010.15 1010.28 1010.40 1010.54 1010.69 1010.85 1011.02 1011.20 1011.38 1011.56 1011.74 1011.91 1012.07 1012.24 1012.40 1012.57 1012.74
1005.53 1005.57 1005.60 1005.65 1005.72 1005.83 1005.97 1006.15 1006.36 1006.59 1006.82 1007.06 1007.30 1007.53 1007.75 1007.97 1008.18 1008.39 1008.59 1008.79 1008.97 1009.13 1009.27 1009.40 1009.50 1009.58 1009.66 1009.73 1009.81 1009.90 1010.01 1010.14 1010.29 1010.45 1010.63 1010.82 1011.00 1011.19 1011.37 1011.56 1011.74 1011.92 1012.10
1005.93 1006.01 1006.08 1006.15 1006.24 1006.35 1006.48 1006.62 1006.77 1006.92 1007.08 1007.23 1007.38 1007.52 1007.67 1007.83 1007.99 1008.16 1008.33 1008.49 1008.65 1008.79 1008.90 1008.99 1009.05 1009.10 1009.13 1009.15 1009.19 1009.24 1009.31 1009.40 1009.52 1009.67 1009.83 1010.00 1010.19 1010.37 1010.57 1010.76 1010.96 1011.16 1011.37
1006.35 1006.48 1006.59 1006.71 1006.82 1006.92 1007.03 1007.12 1007.21 1007.28 1007.35 1007.41 1007.46 1007.52 1007.60 1007.69 1007.80 1007.92 1008.05 1008.18 1008.30 1008.40 1008.48 1008.53 1008.55 1008.55 1008.54 1008.53 1008.53 1008.54 1008.58 1008.64 1008.73 1008.84 1008.98 1009.13 1009.29 1009.46 1009.65 1009.84 1010.05 1010.28 1010.51
1006.74 1006.92 1007.09 1007.24 1007.37 1007.48 1007.56 1007.60 1007.62 1007.61 1007.58 1007.55 1007.51 1007.50 1007.50 1007.53 1007.59 1007.66 1007.74 1007.83 1007.91 1007.96 1008.00 1008.00 1007.98 1007.95 1007.90 1007.86 1007.83 1007.82 1007.83 1007.86 1007.92 1007.99 1008.08 1008.19 1008.31 1008.44 1008.60 1008.78 1008.99 1009.22 1009.49
1007.09 1007.33 1007.55 1007.74 1007.88 1007.98 1008.03 1008.02 1007.96 1007.87 1007.76 1007.63 1007.52 1007.43 1007.37 1007.34 1007.35 1007.37 1007.41 1007.44 1007.47 1007.47 1007.46 1007.41 1007.35 1007.28 1007.21 1007.15 1007.10 1007.07 1007.06 1007.07 1007.09 1007.12 1007.16 1007.20 1007.26 1007.34 1007.44 1007.58 1007.76 1007.99 1008.27
Thickness
5796 5795 5794 5792 5789 5786 5784 5783 5781 5780 5778 5775 5772 5770 5768 5768 5768 5768 5767 5767 5766 5764 5763 5761 5760 5759 5757 5756 5756 5754 5752 5751 5752 5749 5748 5751 5754 5754 5755 5755 5754 5754 5754
5793 5793 5792 5790 5788 5785 5783 5782 5780 5779 5778 5776 5774 5772 5770 5768 5768 5767 5767 5766 5765 5764 5763 5761 5759 5758 5756 5755 5754 5752 5750 5749 5749 5745 5742 5741 5744 5749 5752 5752 5752 5752 5752
5795 5793 5791 5789 5787 5785 5784 5783 5780 5779 5778 5776 5774 5771 5769 5767 5766 5765 5765 5765 5764 5764 5762 5761 5759 5757 5756 5754 5753 5752 5749 5746 5746 5745 5741 5736 5734 5739 5746 5748 5750 5750 5750
5798 5795 5792 5789 5787 5786 5785 5783 5780 5778 5777 5775 5772 5769 5765 5763 5763 5764 5764 5764 5763 5762 5761 5760 5759 5757 5755 5754 5753 5752 5749 5746 5743 5743 5742 5741 5739 5734 5736 5742 5745 5747 5747
5801 5797 5796 5793 5790 5787 5785 5782 5780 5777 5776 5774 5772 5768 5765 5764 5763 5763 5762 5761 5761 5760 5760 5758 5757 5755 5754 5753 5752 5751 5749 5747 5743 5741 5739 5737 5736 5735 5732 5733 5738 5741 5743
5803 5799 5797 5794 5790 5787 5785 5782 5779 5776 5775 5772 5770 5768 5765 5763 5761 5760 5759 5758 5758 5758 5758 5757 5755 5754 5753 5752 5751 5750 5748 5746 5744 5741 5739 5736 5734 5732 5731 5730 5732 5734 5739
5803 5798 5794 5791 5788 5786 5784 5781 5777 5774 5772 5770 5768 5767 5765 5763 5761 5760 5757 5756 5755 5755 5755 5755 5754 5753 5752 5751 5750 5748 5746 5745 5742 5741 5739 5737 5736 5734 5732 5729 5729 5730 5734
5804 5800 5796 5793 5789 5787 5784 5780 5776 5773 5770 5768 5766 5765 5764 5762 5761 5759 5757 5755 5754 5754 5754 5753 5752 5751 5750 5749 5747 5746 5744 5743 5741 5740 5738 5736 5735 5734 5732 5729 5727 5725 5728
5802 5799 5797 5793 5789 5787 5784 5780 5775 5772 5769 5767 5765 5763 5762 5760 5759 5757 5756 5755 5754 5754 5753 5752 5750 5749 5748 5746 5744 5742 5741 5740 5739 5737 5736 5735 5734 5732 5731 5730 5727 5723 5721
5798 5796 5793 5791 5788 5786 5783 5779 5775 5771 5769 5766 5764 5762 5759 5757 5756 5754 5753 5752 5752 5751 5750 5749 5747 5746 5744 5743 5740 5739 5738 5736 5735 5734 5733 5732 5731 5730 5728 5727 5726 5724 5720
5796 5793 5791 5789 5786 5783 5779 5776 5772 5768 5766 5763 5761 5759 5757 5755 5753 5751 5750 5749 5749 5748 5747 5745 5744 5742 5741 5739 5737 5735 5734 5732 5732 5731 5730 5729 5728 5726 5725 5724 5722 5720 5719
5793 5791 5788 5785 5782 5778 5776 5773 5770 5766 5763 5761 5758 5756 5754 5751 5749 5748 5747 5746 5745 5745 5743 5742 5740 5738 5737 5736 5733 5731 5730 5729 5728 5727 5726 5725 5724 5722 5721 5719 5718 5716 5715
5786 5784 5782 5779 5777 5775 5772 5769 5766 5763 5760 5757 5754 5752 5750 5748 5746 5744 5742 5741 5741 5740 5739 5737 5735 5734 5733 5731 5730 5728 5726 5725 5724 5723 5722 5720 5718 5717 5716 5715 5713 5712 5711
5780 5778 5775 5774 5772 5770 5768 5765 5762 5759 5756 5753 5749 5747 5746 5744 5742 5740 5738 5737 5735 5734 5733 5732 5731 5730 5729 5727 5725 5724 5722 5721 5720 5719 5717 5716 5714 5712 5711 5710 5708 5707 5705
5774 5773 5771 5768 5766 5764 5762 5759 5757 5754 5751 5747 5745 5742 5741 5740 5738 5735 5733 5732 5731 5729 5728 5727 5726 5725 5724 5723 5721 5719 5718 5716 5715 5713 5712 5711 5710 5709 5707 5705 5703 5701 5698
5770 5769 5766 5763 5761 5758 5756 5753 5750 5748 5745 5742 5740 5737 5734 5733 5732 5730 5729 5728 5726 5723 5722 5721 5719 5718 5718 5717 5715 5714 5712 5710 5709 5707 5706 5706 5704 5703 5701 5699 5698 5696 5693
5765 5763 5761 5759 5756 5754 5751 5747 5744 5741 5738 5735 5732 5731 5729 5727 5725 5724 5722 5720 5717 5716 5715 5714 5713 5712 5710 5709 5709 5708 5706 5704 5702 5701 5700 5699 5698 5696 5694 5693 5692 5690 5689
5760 5758 5757 5754 5751 5749 5746 5742 5738 5734 5731 5728 5725 5723 5721 5720 5719 5716 5713 5712 5711 5710 5708 5707 5706 5704 5704 5703 5702 5701 5699 5697 5696 5694 5693 5692 5690 5689 5687 5686 5684 5683 5683
5756 5754 5753 5749 5746 5742 5739 5733 5729 5726 5723 5720 5718 5716 5714 5713 5711 5708 5706 5705 5704 5703 5701 5700 5699 5697 5696 5696 5695 5693 5691 5689 5688 5687 5685 5684 5683 5681 5680 5678 5677 5676 5676
5748 5746 5745 5741 5737 5734 5731 5726 5722 5718 5716 5715 5712 5710 5708 5706 5704 5702 5700 5699 5698 5696 5694 5693 5692 5690 5689 5688 5687 5685 5683 5681 5680 5679 5678 5676 5674 5673 5672 5670 5669 5668 5668
5739 5737 5735 5732 5730 5727 5723 5718 5715 5712 5711 5709 5706 5703 5701 5699 5698 5696 5695 5693 5691 5689 5687 5686 5684 5682 5681 5680 5678 5677 5674 5673 5672 5670 5669 5668 5666 5665 5663 5662 5661 5661 5660
5729 5727 5724 5721 5719 5717 5714 5709 5707 5707 5704 5701 5698 5696 5694 5693 5693 5691 5689 5687 5684 5682 5680 5678 5676 5675 5673 5671 5670 5668 5667 5666 5663 5662 5660 5659 5657 5656 5655 5653 5652 5651 5651
5719 5717 5715 5712 5709 5707 5706 5702 5701 5699 5696 5693 5691 5689 5688 5686 5685 5684 5681 5679 5676 5674 5672 5670 5669 5667 5665 5663 5661 5660 5658 5657 5655 5653 5651 5649 5648 5647 5646 5645 5644 5642 5642
5708 5706 5703 5701 5698 5697 5696 5695 5693 5691 5688 5685 5683 5681 5680 5678 5677 5676 5674 5671 5669 5667 5665 5663 5661 5659 5657 5655 5654 5652 5650 5648 5646 5644 5642 5640 5639 5638 5637 5636 5635 5634 5632
5697 5695 5693 5691 5689 5687 5686 5685 5685 5683 5680 5677 5675 5673 5672 5670 5668 5667 5665 5664 5663 5661 5659 5657 5654 5651 5650 5648 5645 5643 5641 5640 5637 5635 5633 5631 5630 5629 5628 5627 5625 5624 5623
5686 5684 5683 5682 5680 5678 5676 5675 5675 5674 5671 5669 5667 5665 5664 5662 5660 5658 5657 5656 5655 5653 5651 5649 5646 5644 5642 5639 5637 5634 5632 5630 5628 5626 5624 5623 5621 5620 5618 5617 5616 5615 5614